Location: Tamazert
(32.6352°N, 5.2072°W)
Time: 05:25:40
(UTC+00:00)

Vanguard 2 - Pass Details

Date: 08 October 2022
Orbit: 553 x 2933 km, 32.9° (Epoch: 26 November)

Event Time Altitude Azimuth Distance (km) Brightness Sun altitude
Rises 18:35:43 0° 283° (WNW) 6,132 14.0 -9.0°
Reaches altitude 10° 18:39:59 10° 275° (W) 5,362 13.4 -9.9°
Maximum altitude 18:54:11 35° 218° (SW) 4,031 11.5 -12.9°
Drops below altitude 10° 19:08:50 10° 160° (SSE) 5,470 11.6 -16.0°
Sets 19:13:20 0° 151° (SSE) 6,259 11.9 -17.0°
